Weather Roundup
Issued by NWS Chicago, IL

Home | Current Version | Previous Version | Text Only | Print | Product List | Glossary Off
Versions: 1 2 3 4 5 6 7 8 9 10 11 12 13 14 15 16 17 18 19 20 21 22 23 24 25 26 27 28 29 30 31 32 33 34 35 36 37 38 39 40 41 42 43 44 45 46 47 48 49 50

000
NZUS59 KLOT 270303
HRRLOT

CHICAGO AREA WEATHER ROUNDUP
NATIONAL WEATHER SERVICE CHICAGO/ROMEOVILLE IL
1000 PM CDT WED APR 26 2017

NOTE: "FAIR" INDICATES FEW OR NO CLOUDS BELOW 12,000 FEET WITH NO
SIGNIFICANT WEATHER AND/OR OBSTRUCTIONS TO VISIBILITY.

* THESE STATIONS ARE NOT UNDER NWS QUALITY CONTROL. THEY ALSO MAY NOT
  REPORT WEATHER SUCH AS PRECIPITATION OR FOG.

ILZ005-006-012>014-019>023-270400-
NORTHEAST ILLINOIS

CITY           SKY/WX    TMP DP  RH WIND       PRES   REMARKS
OHARE          CLOUDY    62  56  80 SW3       29.46R
MIDWAY         LGT RAIN  65  60  84 SE3       29.46S
AURORA         LGT RAIN  57  55  93 NW5       29.47S FOG
LANSING*       RAIN      63  61  95 S3        29.49S
JOLIET*        RAIN      61  61  98 CALM      29.46F
WAUKEGAN       LGT RAIN  60  55  83 SW6       29.46R
DUPAGE AIRPORT LGT RAIN  59  57  93 SW3       29.47R
WHEELING       LGT RAIN  62  59  90 CALM      29.47R
KANKAKEE*      LGT RAIN  61  59  94 SE5       29.47F
MORRIS*        LGT RAIN  59  57  92 CALM      29.45F
NORTHERLY ISL    N/A     65  57  75 S7          N/A
$$

WIZ051-052-058>065-066-070>072-270400-
SOUTHEAST WISCONSIN

CITY           SKY/WX    TMP DP  RH WIND       PRES   REMARKS
MILWAUKEE      CLOUDY    62  56  80 W9        29.45R
KENOSHA*       CLOUDY    61  54  77 SW6       29.46R
RACINE*        CLOUDY    62  54  74 SW6       29.47R
WEST BEND      LGT RAIN  55  54  94 W6        29.44F
$$

INZ001>003-010>013-019-020-270400-
NORTHWEST INDIANA

CITY           SKY/WX    TMP DP  RH WIND       PRES   REMARKS
GARY*          LGT RAIN  66  61  82 W6        29.50R
MICHIGAN CITY* NOT AVBL
RENSSELAER*    NOT AVBL
VALPARAISO     RAIN      63  60  90 W14       29.52R FOG
$$

LMZ740>746-270400-
SOUTHERN LAKE MICHIGAN

STATION/POSITION TIME  SKY/WX   TEMP WIND        PRES    VSBY
                                AIR  DIR/SP/G
                 (UTC)          (F)  (DEG/KT/KT) (MB)    (MI)
HARRISON CRIB    0230            66  210/  5/  5   N/A
BURNHAM HARBOR   0300            64  150/  3/ 10   N/A
CALUMET HARBOR   0230            65  210/  5/  6  998.4R
BURNS HARBOR     0240            64  250/ 12/ 27  999.7R
MICHIGAN CITY    0240            61  230/ 16/ 18   N/A
$$

ABBREVIATIONS USED IN REMARKS
   TC - TEMPERATURE IN CELSIUS
  WCI - WIND CHILL INDEX
   HX - HEAT INDEX
  VSB - VISIBILITY
$$




USA.gov is the U.S. government's official web portal to all federal, state and local government web resources and services.